Simultaneous Nadir Overpasses (SNOs) Predictions

Prediction of SNOs between AQUA and METOP-B Satellite Orbit:

Table of predicted SNOs for the next 14.0 days since TLE Epoch: 4/25/2014
Index Date (AQUA) Time (AQUA) Lat,Lon (AQUA) SZA (AQUA ) Date (METOP-B) Time (METOP-B) Lat,Lon (METOP-B) SZA (METOP-B ) Distance(km) Time Diff (sec)
1 04/28/2014 10:53:16 -73.38,-167.98 120.87 04/28/2014 10:52:06 -73.36,-169.51 120.84 48.68 70
2 04/28/2014 11:42:51 73.75, -1.15 59.52 04/28/2014 11:42:37 73.76, -1.24 59.53 2.77 14
3 04/28/2014 12:32:18 -73.84, 166.31 120.41 04/28/2014 12:33:18 -73.83, 166.24 120.42 2.29 60
4 05/01/2014 06:27:35 -73.41,-101.63 121.71 05/01/2014 06:26:25 -73.36,-103.08 121.71 46.48 70
5 05/01/2014 07:17:10 73.79, 65.19 58.68 05/01/2014 07:16:56 73.77, 65.19 58.67 2.36 14
6 05/01/2014 08:06:37 -73.87,-127.34 121.25 05/01/2014 08:07:37 -73.83,-127.33 121.29 3.72 60
7 05/04/2014 02:01:53 -73.47, -35.34 122.48 05/04/2014 02:00:42 -73.41, -36.55 122.50 39.01 71
8 05/04/2014 02:51:26 73.76, 131.69 57.81 05/04/2014 02:51:14 73.77, 131.61 57.83 2.71 12
9 05/04/2014 03:40:53 -73.83, -60.83 122.12 05/04/2014 03:41:55 -73.83, -60.91 122.12 2.43 62
10 05/06/2014 21:36:11 -73.53, 30.97 123.22 05/06/2014 21:35:00 -73.45, 29.96 123.26 33.31 71
11 05/06/2014 22:25:43 73.76,-161.89 57.02 05/06/2014 22:25:33 73.76,-161.99 57.02 3.13 10
12 05/06/2014 23:15:10 -73.83, 5.59 122.92 05/06/2014 23:16:14 -73.82, 5.48 122.94 3.62 64
13 05/09/2014 17:10:29 -73.62, 97.21 123.89 05/09/2014 17:09:16 -73.58, 96.67 123.91 17.36 73
14 05/09/2014 18:00:00 73.80, -95.56 56.30 05/09/2014 17:59:51 73.79, -95.50 56.29 2.22 9




NCC Satellite Simultaneous Nadir Overpasses (SNOs) Prediction Service
